[Date Prev][Date Next][Thread Prev][Thread Next] - [Date Index][Thread Index][Author Index]
2 Line ISS Keps 11-21
- Subject: [sarex] 2 Line ISS Keps 11-21
- From: "Dave Larsen PhD" <doc@xxxxxxxxxxx>
- Date: Sun, 20 Nov 2005 18:44:13 -0800
ISS
1 25544U 98067A 05324.88645833 .00010146 00000-0 79174-4 0 7968
2 25544 051.6427 177.7771 0008343 307.3700 249.6757 15.72357348400348
----
Via the sarex mailing list at AMSAT.ORG courtesy of AMSAT-NA.
To unsubscribe, send "unsubscribe sarex" to Majordomo@amsat.org
AMSAT Home